Flag for Germany Weather past 2 weeks in Herford, North Rhine-Westphalia, Germany

43 °F

Broken clouds.

Feels Like: 39 °F
Forecast: 34 / 43 °F
Wind: 6 mph from Southwest

Location: Bueckeburg

Current Time: Nov 25, 2015 at 4:06:41 PM

Latest Report: Nov 25, 2015 at 3:20 PM

Visibility: 4 mi

Pressure: 29.62 "Hg

Humidity: 93%

Dew point: 41 °F

Location of HerfordLocation

Historic Weather in Herford — Graph


Herford temperature yesterday

Maximum temperature yesterday: 41 °F (at 12:20 PM)
Minimum temperature yesterday: 36 °F (at 5:45 PM)
Average temperature yesterday: 38 °F

Past Weeks' High & Low Weather Summary

High59 °F (Nov 17, 9:48 PM)100% (Nov 16, 1:20 AM)30.27 "Hg (Nov 16, 1:20 AM)
Low32 °F (Nov 22, 1:20 AM)51% (Nov 13, 4:20 PM)29.33 "Hg (Nov 21, 5:20 AM)
Average48 °F84%29.85 "Hg
* Reported Nov 10 2:20 PM — Nov 25 2:47 PM, Herford, Weather by CustomWeather, © 2015

Note: Actual official high and low records may vary slightly from our data, if they occured in-between our weather recording intervals... More about our weather records


Herford weather history for previous 24 hours

Time TempWeatherWind HumidityBarometerVisibility
2:47 PM
Wed, Nov 25
43 °FBroken clouds.8 mph93%29.59 "Hg4 mi
2:20 PM43 °FPartly sunny.9 mph93%29.59 "Hg4 mi
1:20 PM43 °FPartly sunny.9 mph93%29.62 "Hg4 mi
12:20 PM41 °FLow clouds.7 mph93%29.62 "Hg4 mi
11:20 AM41 °FLow clouds.9 mph93%29.62 "Hg4 mi
10:54 AM41 °FLow clouds.10 mph93%29.62 "Hg4 mi
10:20 AM39 °FLow clouds.9 mph93%29.65 "Hg4 mi
9:20 AM39 °FLow clouds.9 mph93%29.65 "Hg5 mi
8:20 AM39 °FLow clouds.9 mph93%29.65 "Hg4 mi
7:20 AM39 °FDrizzle. Low clouds.10 mph93%29.62 "Hg4 mi
6:20 AM37 °FLow clouds.12 mph93%29.62 "Hg5 mi
5:20 AM37 °FLow clouds.10 mph93%29.65 "Hg5 mi
4:20 AM37 °FPassing clouds.9 mph93%29.65 "Hg5 mi
3:20 AM36 °FPassing clouds.13 mph93%29.65 "Hg5 mi
2:20 AM36 °FLight rain. Passing clouds.12 mph93%29.68 "Hg5 mi
1:20 AM36 °FLight rain. Passing clouds.14 mph93%29.68 "Hg4 mi
12:20 AM36 °FLight rain. Passing clouds.14 mph93%29.71 "Hg4 mi
11:20 PM
Tue, Nov 24
36 °FPassing clouds.13 mph93%29.74 "Hg4 mi
10:20 PM36 °FPassing clouds.15 mph93%29.74 "Hg4 mi
9:20 PM36 °FPassing clouds.16 mph93%29.77 "Hg4 mi
8:20 PM36 °FPassing clouds.15 mph93%29.80 "HgN/A
7:20 PM36 °FDrizzle. Mostly cloudy.15 mph93%29.83 "HgN/A
6:20 PM36 °FLight rain. Passing clouds.16 mph87%29.83 "Hg4 mi
5:57 PM36 °FRain. Fog.20 mph87%29.83 "Hg2 mi
5:45 PM36 °FRain. Overcast.20 mph87%29.83 "Hg4 mi
5:20 PM37 °FDrizzle. Mostly cloudy.17 mph81%29.86 "Hg5 mi
4:20 PM39 °FDrizzle. Mostly cloudy.21 mph65%29.86 "HgN/A
Weather by CustomWeather, © 2015

See weather overviewHow to use our weather pages